Miscellaneous Local Product
Issued by NWS North Platte, NE

Home | Current Version | Previous Version | Text Only | Print | Product List | Glossary On
Versions: 1 2 3 4 5 6 7 8 9 10 11 12 13 14 15 16 17 18 19 20 21 22 23 24 25 26 27 28 29 30 31 32 33 34 35 36 37 38 39 40 41 42 43 44 45 46 47 48 49 50
000
AXUS43 KLBF 300610
MISLBF


WESTERN AND NORTH CENTRAL NEBRASKA HOURLY WEATHER ROUNDUP
NATIONAL WEATHER SERVICE NORTH PLATTE NE
1200 AM CST FRI JAN 30 2015

***STATIONS NOT REPORTING VARIABLES SUCH AS SKY/WEATHER OR
PRESSURE ARE PROVIDED BY THE NEBRASKA DEPARTMENT OF
ROADS...RAWS...AND APRS NETWORKS...AND ARE NOT UNDER
NATIONAL WEATHER SERVICE QUALITY CONTROL***

...OBSERVATIONS IN AND NEAR THE EASTERN PANHANDLE OF NEBRASKA...

CITY           SKY/WX    TMP DP  RH WIND       PRES   REMARKS
PINE RIDGE     CLEAR     30  14  51 W5        30.34F WCI  25
CHADRON        CLEAR     27  18  69 VRB3      30.34F
ALLIANCE       PTCLDY    25  18  74 S9        30.36F WCI  15
SIDNEY         PTCLDY    29  19  66 S6        30.38F WCI  23
WHITECLAY        N/A     30  14  51 S8          N/A  WCI  23
CRESCENT LAKE    N/A     26  15  62 SE3         N/A
LISCO            N/A     34  17  50 NE10        N/A  WCI  26
LEWELLEN         N/A     24  19  81 E5          N/A  WCI  18
$$

...OBSERVATIONS IN NORTH CENTRAL NEBRASKA...

CITY           SKY/WX    TMP DP  RH WIND       PRES   REMARKS
VALENTINE      CLEAR     21  17  84 NE3       30.43S
THEDFORD       CLEAR     23  18  80 CALM      30.43S
AINSWORTH      CLEAR     21  17  84 SE5       30.44S WCI  14
O`NEILL        CLEAR     23  21  93 SE5       30.50S WCI  17
ORD            CLEAR     18  14  84 SW3       30.49R
BROKEN BOW     PTCLDY    18  15  88 CALM      30.46F
BROWNLEE         N/A     26  15  61 S3          N/A
SPRINGVIEW       N/A     19  16  89 CALM        N/A
HALSEY           N/A     24  14  66 S5          N/A  WCI  18
BREWSTER         N/A     23  20  89 CALM        N/A
ROSE             N/A     30  27  88 E5          N/A  WCI  25
NEWPORT          N/A     27  26  96 E8          N/A  WCI  19
SARGENT          N/A     21  18  87 CALM        N/A
COMSTOCK         N/A     29  23  78 CALM        N/A
CHAMBERS         N/A     21  15  78 E3          N/A
EWING            N/A     20  18  90 CALM        N/A
$$

...OBSERVATIONS IN SOUTHWEST NEBRASKA AND FAR NORTHEAST COLORADO...

CITY           SKY/WX    TMP DP  RH WIND       PRES   REMARKS
WRAY           FAIR      33  22  66 SE5       30.44S WCI  28
IMPERIAL       MOCLDY    25  17  72 S3        30.44F
OGALLALA       PTCLDY    20  17  86 CALM      30.43F
NORTH PLATTE   PTCLDY    18  12  77 CALM      30.45F
MCCOOK         PTCLDY    22  16  78 CALM      30.47F
LEXINGTON      PTCLDY    20  16  86 CALM      30.48S
BRADY            N/A     20  15  79 CALM        N/A
GOTHENBURG       N/A     22  15  74 CALM        N/A
CALLAWAY         N/A     22  19  88 CALM        N/A
$$

...NORTH PLATTE AREA...

CITY           SKY/WX    TMP DP  RH WIND       PRES   REMARKS
AIRPORT        PTCLDY    18  12  77 CALM      30.45F
DOWNTOWN         N/A     22  18  84 CALM        N/A
$$

...SOME WEATHER OBSERVATIONS FROM AROUND THE REGION...

CITY           SKY/WX    TMP DP  RH WIND       PRES   REMARKS
DENVER         CLOUDY    37  24  59 S13       30.32F WCI  29
LARAMIE        CLOUDY    28  22  78 S15       30.28F WCI  16
CHEYENNE       MOCLDY    30  18  60 S7        30.31F WCI  23
SCOTTSBLUFF    MOCLDY    28  21  75 E8        30.36F WCI  20
RAPID CITY     CLEAR     25  11  55 SE7       30.31F WCI  17
PIERRE         CLEAR     21  18  88 SE9       30.45S WCI  11
WINNER         FAIR      23  18  81 SE9       30.45F WCI  13
SIOUX FALLS    MOCLDY    21  16  81 NE6       30.53S WCI  13
OMAHA          CLEAR     26  21  81 N6        30.55R WCI  19
GRAND ISLAND     N/A     22  17  81 MISG      30.52R
KANSAS CITY    CLEAR     25  21  85 N9        30.52S WCI  15
WICHITA        PTCLDY    31  22  69 CALM      30.53R
HAYS           PTCLDY    23  10  58 NW3       30.51S
LIBERAL        PTCLDY    28  16  59 CALM      30.52F
GOODLAND       MOCLDY    31  22  69 S10       30.45F WCI  22
$$



USA.gov is the U.S. government's official web portal to all federal, state and local government web resources and services.